Regional Weather Roundup
Issued by NWS

Home | Current Version | Previous Version | Graphics & Text | Print | Product List | Glossary Off
Versions: 1 2 3 4 5 6 7 8 9 10 11 12 13 14 15 16 17 18 19 20 21 22 23 24 25 26 27 28 29 30 31 32 33 34 35 36 37 38 39 40 41 42 43 44 45 46 47 48 49 50

000
ASUS43 KMKX 021900
RWRWI

WISCONSIN REGIONAL WEATHER ROUNDUP
NATIONAL WEATHER SERVICE MILWAUKEE/SULLIVAN WI
200 PM CDT MON MAY 02 2016

NOTE: "FAIR" INDICATES FEW OR NO CLOUDS BELOW 12,000 FEET WITH NO
SIGNIFICANT WEATHER AND/OR OBSTRUCTIONS TO VISIBILITY.

WIZ001-002-006>008-014>016-023>028-022000-
NORTHWEST WISCONSIN

CITY           SKY/WX    TMP DP  RH WIND       PRES   REMARKS
SUPERIOR ARPT  SUNNY     62  36  38 E9        30.07F
ASHLAND        SUNNY     63  39  41 N10       30.08F
HAYWARD        PTSUNNY   63  30  28 VRB5      30.05F
SIREN          MOSUNNY   62  27  27 CALM      30.06F
CUMBERLAND     SUNNY     61  30  31 SW5       30.06F
RICE LAKE      SUNNY     62  32  32 S3        30.08F
CHETEK         MOSUNNY   62  34  35 CALM      30.06F
LADYSMITH      MOSUNNY   60  34  37 S5        30.08F
EAU CLAIRE     NOT AVBL
MENOMONIE      MOSUNNY   69  34  27 CALM      30.06F
NEW RICHMOND   SUNNY     62  32  32 CALM      30.07F
OSCEOLA        SUNNY     64  34  33 W3        30.09F
$$

WIZ003>005-009-010-017-018-022000-
NORTH CENTRAL WISCONSIN

CITY           SKY/WX    TMP DP  RH WIND       PRES   REMARKS
MANITOWISH WTR PTSUNNY   58  32  37 S3        30.05F
ARBOR VITAE    PTSUNNY   59  31  34 W3        30.06F
WOODRUFF       PTSUNNY   59  31  34 W3        30.06F
RHINELANDER    CLOUDY    60  31  33 VRB5      30.06F
EAGLE RIVER    PTSUNNY   59  27  29 CALM      30.05F
LAND O LAKES   PTSUNNY   61  29  28 NW8       30.06F
PHILLIPS       CLOUDY    60  33  35 SE5       30.05F
TOMAHAWK       CLOUDY    60  31  33 NE5       30.07F
MEDFORD        PTSUNNY   59  37  44 W8        30.07F
MERRILL        CLOUDY   N/A N/A N/A W6        30.07F
$$

WIZ029-030-035-036-043>047-022000-
CENTRAL WISCONSIN

CITY           SKY/WX    TMP DP  RH WIND       PRES   REMARKS
WAUSAU         PTSUNNY   64  31  28 NW5       30.04F
MOSINEE        PTSUNNY   61  30  31 N7        30.07F
MARSHFIELD     PTSUNNY   61  34  36 VRB5      30.06F
STEVENS POINT  PTSUNNY   59  31  34 NW6       30.06F
WAUPACA        SUNNY     64  27  24 E3        30.06F
WAUTOMA        SUNNY     64  29  26 N12G18    30.05F
WISC RAPIDS    PTSUNNY   62  27  26 VRB7      30.08F
CAMP DOUGLAS   NOT AVBL
$$

WIZ011>013-019>022-031-037>040-048>050-022000-
NORTHEAST WISCONSIN

CITY           SKY/WX    TMP DP  RH WIND       PRES   REMARKS
ANTIGO         MOSUNNY   60  33  36 CALM      30.06F
SHAWANO        SUNNY     65  29  26 E3        30.06F
OCONTO         SUNNY     60  36  40 E8        30.06F
STURGEON BAY   MOSUNNY   59  34  38 N9        30.09S
GREEN BAY      LGT RAIN  63  32  31 MISG      30.07F
MANITOWOC      NOT AVBL
APPLETON       PTSUNNY   61  28  29 VRB6      30.04F
CLINTONVILLE   SUNNY     63  30  29 NE3       30.06F
OSHKOSH        SUNNY     61  32  33 E10       30.06F
$$

WIZ032>034-041-042-053>061-022000-
SOUTHWEST WISCONSIN

CITY           SKY/WX    TMP DP  RH WIND       PRES   REMARKS
LA CROSSE      SUNNY     64  34  32 W6        30.07F
SPARTA         CLOUDY    61  35  38 NW7       30.08F
VIROQUA        MOSUNNY   61  34  36 NW5       30.07F
BOSCOBEL       MOSUNNY   65  33  30 VRB6      30.06F
PRAIRIE DU CHI PTSUNNY   59  39  47 CALM      30.07F
PLATTEVILLE    MOSUNNY   60  37  42 NE8       30.07F
$$

WIZ056-057-062-063-064-067-068-022000-
SOUTH CENTRAL WISCONSIN

CITY           SKY/WX    TMP DP  RH WIND       PRES   REMARKS
REEDSBURG      PTSUNNY   60  34  37 NW5       30.06F
BARABOO/DELLS  PTSUNNY   61  30  31 E9        30.06F
LONE ROCK      NOT AVBL
MINERAL POINT  PTSUNNY   61  32  33 NE9       30.07S
MADISON        PTSUNNY   62  35  36 E6        30.06F
MIDDLETON      PTSUNNY   60  36  40 NE10      30.07F
WATERTOWN      PTSUNNY   59  35  39 NE7       30.05F
MONROE         PTSUNNY   57  37  47 NE8       30.06F
JANESVILLE     CLOUDY    63  36  36 NE9       30.05F
$$

WIZ051-052-058>065-066-070>072-022000-
SOUTHEAST WISCONSIN

CITY           SKY/WX    TMP DP  RH WIND       PRES   REMARKS
MILWAUKEE      PTSUNNY   55  36  48 NE13      30.07S
WAUKESHA       NOT AVBL
MILWAUKEE/TIMM SUNNY     59  30  33 NE10G18   30.07S
RACINE         MOSUNNY   56  36  47 N12       30.08S
BURLINGTON     CLOUDY    58  32  37 E14       30.05F
KENOSHA        SUNNY     60  38  43 NE15      30.06S
FOND DU LAC    SUNNY     61  36  39 N12       30.06F
SHEBOYGAN      SUNNY     58  40  51 E12       30.06F
WEST BEND      PTSUNNY   61  32  33 NE12      30.05S
JUNEAU         PTSUNNY   58  35  42 N8        30.07S
$$

LSZ147-162-022000-
LAKE SUPERIOR

STATION/POSITION TIME  TEMP    WIND        PRES    WAVE
                       AIR SEA DIR/SP/G            HT/PER
                 (UTC) (F)     (DEG/KT/KT) (MB)    (FT/S)
W MID LAKE BUOY  1750   38 37  210/  4/  6 1020.4F   0
DEVILS ISLAND    1800   45     110/  6/  8 1019.8F
SAXON HARBOR     1800   43      20/  2/  4 1019.3F
$$

LMZ867-665-643>646-022000-
LAKE MICHIGAN

STATION/POSITION TIME  TEMP    WIND        PRES    WAVE
                       AIR SEA DIR/SP/G            HT/PER
                 (UTC) (F)     (DEG/KT/KT) (MB)    (FT/S)
CHAMBERS ISLAND  1800   55      70/  6/  8 1018.3F
N MID LAKE BUOY  1750   41 39  250/  2/  2 1018.7F   0
NORTHPORT PIER   1800   46     130/  7/  7 1018.3F
KEWAUNEE LAKESHO 1800   46      80/  4/  6 1018.0F
SHEBOYGAN LAKESH 1800   43      30/  8/  9 1019.3F
PORT WASHINGTON  1800   48      50/  7/  9 1019.3
S MID LAKE BUOY  1750   41 41  360/  8/ 10 1017.8F   1/ 4
KENOSHA   LAKESH 1800   46      30/ 14/ 15 1017.9F
$$

TC  - TEMPERATURE IN CELSIUS
VSB - VISIBILITY IN STATUTE MILES
WCI - WIND CHILL INDEX
HX  - HEAT INDEX





USA.gov is the U.S. government's official web portal to all federal, state and local government web resources and services.